Location: �clusier
(49.9361°N, 2.7869°E)
Time: 02:57:11
(UTC+00:00)

Cosmos 1943 Rocket - Pass Details

Date: 02 November 2021
Orbit: 811 x 844 km, 71.0° (Epoch: 07 December)

Event Time Altitude Azimuth Distance (km) Brightness Sun altitude
Rises 20:59:43 0° 322° (NW) 3,411 6.1 -43.4°
Reaches altitude 10° 21:02:38 10° 308° (NW) 2,468 5.2 -43.8°
Enters shadow 21:03:59 15° 298° (WNW) 2,106 4.8 -44.0°
